KALAMSAT-V2 & PSLV R/B (43948 NORAD) Tracking and Keplerian Element Data

This shows tracking and keplerian element data for the satellite.

Feedback or suggestion? Click here.




ElementValue
Catalog43948
NameKALAMSAT-V2 & PSLV R/B
Epoch Orbit446
Epoch Day53.8532055
Epoch Year2019
RAAN333.8053
Inclination98.7958
Eccentricity0.0004887
Argument of Perigee145.5871
Mean Anonmoly214.5687
Mean Motion15.39085874
Decay Rate9.98E-06
L11 43948U 19006B 19053.85320550 .00000998 00000-0 28683-4 0 9997
L22 43948 98.7958 333.8053 0004887 145.5871 214.5687 15.39085874 4466

Live tracking and technical data element details for KALAMSAT-V2 & PSLV R/B (NORAD 43948). KALAMSAT-V2 & PSLV R/B can be tracked NOW for your location showing map with azimuth and elevation plus other details from your city location.

Track the satellite on the map from your city or location and see movement details for azimuth, elevation, latitude, longitude, range, height, and movement on the map or in text.







IsCatalogInMostPopularTable: catalog: 43948, numindb: 72
Update: records affected: 1



GetName: 43948 KALAMSAT-V2 & PSLV R/B

Hit Count: updated at: Mon, 22 Jul 2019 04:13:25 GMT